Flag for Philippines Weather past 2 weeks in Makati, Philippines

Now
82 °F

Warm.


Feels Like: 86 °F
Forecast: 79 / 94 °F
Wind: N/A

Location: National Airport

Current Time: Apr 27, 2015 at 12:34:45 AM

Latest Report: Apr 27, 2015 at 12:00 AM


Visibility: N/A

Pressure: 29.89 "Hg

Humidity: 66%

Dew point: 70 °F

Location of MakatiLocation

Historic Weather in Makati — Graph

°F

Makati temperature yesterday

Maximum temperature yesterday: 93 °F (at 1:00 PM)
Minimum temperature yesterday: 79 °F (at 6:00 AM)
Average temperature yesterday: 86 °F

Past Weeks' High & Low Weather Summary

 TemperatureHumidityPressure
High97 °F (Apr 19, 3:00 PM)89% (Apr 13, 5:00 AM)29.98 "Hg (Apr 13, 5:00 AM)
Low75 °F (Apr 12, 3:00 AM)41% (Apr 12, 2:00 PM)29.74 "Hg (Apr 20, 4:00 PM)
Average86 °F64%29.88 "Hg
* Reported Apr 11 11:00 PM — Apr 26 11:00 PM, Makati, Weather by CustomWeather, © 2015

Note: Actual official high and low records may vary slightly from our data, if they occured in-between our weather recording intervals... More about our weather records

Advertising

Makati weather history for previous 24 hours

 ConditionsComfort  
Time TempWeatherWind HumidityBarometerVisibility
11:00 PM
Sun, Apr 26
82 °FWarm.7 mph66%29.92 "HgN/A
10:00 PM82 °FPassing clouds.9 mph66%29.92 "HgN/A
9:00 PM84 °FPassing clouds.10 mph62%29.89 "HgN/A
8:00 PM84 °FPassing clouds.7 mph66%29.89 "HgN/A
7:00 PM86 °FPassing clouds.9 mph62%29.86 "HgN/A
6:00 PM88 °FPartly sunny.12 mph55%29.86 "HgN/A
5:00 PMN/ABroken clouds.12 mphN/A29.83 "HgN/A
4:00 PM91 °FBroken clouds.12 mph49%29.83 "HgN/A
3:00 PM93 °FBroken clouds.10 mph44%29.83 "HgN/A
2:00 PM91 °FBroken clouds.1 mph46%29.83 "HgN/A
1:00 PM93 °FScattered clouds.12 mph44%29.86 "HgN/A
12:00 PM91 °FBroken clouds.12 mph49%29.89 "HgN/A
11:00 AM91 °FBroken clouds.12 mph49%29.92 "HgN/A
10:00 AM88 °FBroken clouds.12 mph55%29.92 "HgN/A
9:00 AM88 °FScattered clouds.9 mph55%29.92 "HgN/A
8:00 AM86 °FBroken clouds.6 mph59%29.92 "HgN/A
7:00 AM82 °FScattered clouds.6 mph66%29.92 "HgN/A
6:00 AM79 °FPassing clouds.6 mph79%29.89 "HgN/A
5:00 AM81 °FPassing clouds.5 mph74%29.86 "HgN/A
4:00 AM81 °FPassing clouds.7 mph79%29.83 "HgN/A
3:00 AM81 °FPassing clouds.9 mph74%29.86 "HgN/A
2:00 AM81 °FPassing clouds.7 mph74%29.86 "HgN/A
1:00 AM82 °FPassing clouds.7 mph70%29.86 "HgN/A
12:00 AM82 °FPassing clouds.8 mph70%29.89 "HgN/A
Weather by CustomWeather, © 2015

See weather overviewHow to use our weather pages